Weather in Petrokhersonets

Russia / Orenburg Oblast     53°01′06″N   53°02′23″E
temp.,
°C
wind,
m/s
gust,
m/s
humid.,
%
clouds,
%
prec.,
mm/h
press.,
hPa
HPBL,
m
30 june, thu
thu3023:00+12nw3573100 0.1 1015119
02:00+12nw2467100 0.0 101393
05:00+11wnw3672100 0.0 1013142
08:00+12w357794 0.0 1013200
11:00+18wnw45565 0.1 10111241
14:00+19nw4548100 0.0 10102225
17:00+19w355896 0.1 10101383
20:00+17w2367100 0.3 100968
1 july, fri
fri123:00+13w227766 0.5 100919
02:00+10wsw118446 0.1 100910
05:00+10s118793 0.5 100910
08:00+14se238077 0.3 1008221
11:00+17sse5666100 1.1 1008659
14:00+20s3551100 1.9 10081856
17:00+17ssw6968100 3.1 1009441
20:00+18ene126747 0.2 1009169
2 july, sat
sat223:00+12ne49849 0.3 1010154
02:00+12ene41183100 0.0 1010202
05:00+12e4107896 0.0 1010218
08:00+14e51069100 0.0 1010335
11:00+18e71161100 0.0 1010864
14:00+17ene61165100 0.0 1010444
17:00+20ene5861100 0.0 1009710
20:00+18ne4871100 0.2 1008225
3 july, sun
sun323:00+15se3583100 0.6 1008130
02:00+14ene51389100 1.0 1007470
05:00+14ene4991100 2.6 1007376
08:00+14nne51087100 0.3 1007414
11:00+16ne51081100 0.3 1007498
14:00+19e576793 0.0 1008753
17:00+20nne23615 0.0 1007919
20:00+19n367698 1.1 1007223
4 july, mon
mon423:00+15n34915 1.6 100863
02:00+13n369299 0.0 1008116
05:00+14nnw4991100 0.0 1008280
08:00+14n588877 0.0 1009369
11:00+18nne566956 0.0 10101071
14:00+19nne676617 0.4 10101093
17:00+20nne78667 1.8 10111231
20:00+18nne597449 0.6 1013818